This is the latest recevied weather packets stored in our database for station/object WY1B. If no packets are shown the sender has not sent any weather packets the latest 10 day(s).
| Time | Temp. | Humidity | Pressure | Rain* | Wind** | Luminosity | Snow |
|---|---|---|---|---|---|---|---|
| 1787854362 | 42.78° C | 18% | 1006.5 hPa | 0 mm | - | 856 W/m² | - |
| 1787854058 | 42.78° C | 19% | 1006.6 hPa | 0 mm | - | 576 W/m² | - |
| 1787853756 | 43.33° C | 18% | 1006.6 hPa | 0 mm | - | 562 W/m² | - |
| 1787853451 | 42.78° C | 18% | 1006.6 hPa | 0 mm | - | 466 W/m² | - |
| 1787853150 | 42.22° C | 18% | 1006.7 hPa | 0 mm | - | 625 W/m² | - |
| 1787852845 | 43.33° C | 18% | 1006.7 hPa | 0 mm | - | 476 W/m² | - |
| 1787852545 | 43.33° C | 18% | 1006.8 hPa | 0 mm | - | 683 W/m² | - |
| 1787852244 | 42.78° C | 19% | 1006.6 hPa | 0 mm | - | 610 W/m² | - |
| 1787851939 | 42.78° C | 19% | 1006.7 hPa | 0 mm | - | 660 W/m² | - |
| 1787851638 | 41.67° C | 20% | 1006.5 hPa | 0 mm | - | 827 W/m² | - |
| 1787851333 | 40.56° C | 21% | 1006.5 hPa | 0 mm | - | 836 W/m² | - |
| 1787851029 | 39.44° C | 23% | 1006.6 hPa | 0 mm | - | 803 W/m² | - |
| 1787850724 | 38.89° C | 24% | 1006.6 hPa | 0 mm | - | 771 W/m² | - |
| 1787850419 | 38.33° C | 23% | 1006.6 hPa | 0 mm | - | 713 W/m² | - |
| 1787850115 | 38.33° C | 23% | 1006.4 hPa | 0 mm | - | 224 W/m² | - |
| 1787849814 | 37.78° C | 24% | 1006.6 hPa | 0 mm | - | 110 W/m² | - |
| 1787849509 | 37.78° C | 23% | 1006.6 hPa | 0 mm | - | 100 W/m² | - |
| 1787849208 | 37.22° C | 25% | 1006.6 hPa | 0 mm | - | 95 W/m² | - |
| 1787848907 | 37.22° C | 24% | 1006.7 hPa | 0 mm | - | 95 W/m² | - |
| 1787848607 | 36.67° C | 26% | 1006.8 hPa | 0 mm | - | 97 W/m² | - |
| 1787848302 | 36.67° C | 27% | 1006.9 hPa | 0 mm | - | 98 W/m² | - |
| 1787847997 | 36.11° C | 28% | 1006.8 hPa | 0 mm | - | 99 W/m² | - |
| 1787847696 | 36.11° C | 28% | 1006.7 hPa | 0 mm | - | 100 W/m² | - |
| 1787847391 | 35.56° C | 29% | 1006.6 hPa | 0 mm | - | 100 W/m² | - |
| 1787847087 | 35.56° C | 29% | 1006.8 hPa | 0 mm | - | 94 W/m² | - |
* Rain latest hour (hover to see other rain measurements)
** Current wind speed in m/s (hover to see current wind gust speed)